This is the latest recevied weather packets stored in our database for station/object SQ9SMC-13. If no packets are shown the sender has not sent any weather packets the latest 10 day(s).
| Time | Temp. | Humidity | Pressure | Rain* | Wind** | Luminosity | Snow |
|---|---|---|---|---|---|---|---|
| 1777238403 | -1.67° C | 83% | 1025.3 hPa | 0 mm | - | 0 W/m² | - |
| 1777238104 | -1.67° C | 83% | 1025.4 hPa | 0 mm | - | 0 W/m² | - |
| 1777237804 | -2.22° C | 81% | 1025.3 hPa | 0 mm | - | 0 W/m² | - |
| 1777237504 | -1.67° C | 80% | 1025.4 hPa | 0 mm | - | 0 W/m² | - |
| 1777237203 | -1.67° C | 80% | 1025.5 hPa | 0 mm | - | 0 W/m² | - |
| 1777236903 | -1.67° C | 81% | 1025.5 hPa | 0 mm | - | 0 W/m² | - |
| 1777236604 | -1.67° C | 80% | 1025.4 hPa | 0 mm | - | 0 W/m² | - |
| 1777236302 | -1.67° C | 79% | 1025.4 hPa | 0 mm | - | 0 W/m² | - |
| 1777236003 | -1.11° C | 78% | 1025.6 hPa | 0 mm | - | 0 W/m² | - |
| 1777235703 | -1.11° C | 77% | 1025.5 hPa | 0 mm | - | 0 W/m² | - |
| 1777235403 | -1.11° C | 77% | 1025.5 hPa | 0 mm | - | 0 W/m² | - |
| 1777235107 | -1.11° C | 77% | 1025.6 hPa | 0 mm | - | 0 W/m² | - |
| 1777234805 | -0.56° C | 75% | 1025.4 hPa | 0 mm | - | 0 W/m² | - |
| 1777234503 | -0.56° C | 74% | 1025.5 hPa | 0 mm | - | 0 W/m² | - |
| 1777234203 | -0.56° C | 73% | 1025.3 hPa | 0 mm | - | 0 W/m² | - |
| 1777233903 | 0° C | 72% | 1025.4 hPa | 0 mm | - | 0 W/m² | - |
| 1777233605 | 0° C | 70% | 1025.4 hPa | 0 mm | - | 0 W/m² | - |
| 1777233303 | 0.56° C | 70% | 1025.4 hPa | 0 mm | - | 0 W/m² | - |
| 1777233002 | 0.56° C | 68% | 1025.5 hPa | 0 mm | - | 0 W/m² | - |
| 1777232703 | 1.11° C | 67% | 1025.4 hPa | 0 mm | - | 0 W/m² | - |
| 1777232404 | 1.11° C | 67% | 1025.4 hPa | 0 mm | - | 0 W/m² | - |
| 1777232103 | 1.11° C | 67% | 1025.4 hPa | 0 mm | - | 0 W/m² | - |
| 1777231805 | 1.11° C | 65% | 1025.3 hPa | 0 mm | - | 0 W/m² | - |
| 1777231503 | 1.67° C | 64% | 1025.3 hPa | 0 mm | - | 0 W/m² | - |
| 1777231203 | 1.67° C | 63% | 1025.5 hPa | 0 mm | - | 0 W/m² | - |
* Rain latest hour (hover to see other rain measurements)
** Current wind speed in m/s (hover to see current wind gust speed)